Location: Unspecified
(0.0000°N, 0.0000°E)
Time: 06:57:27
(UTC+02:00)

Hubble Space Telescope - Visible Passes

Search period start: 26 October 2021 00:00
Search period end: 04 November 2021 23:00
Orbit: 535 x 539 km, 28.5° (Epoch: 25 October)

Date Brightness Start Highest point End Pass type
(mag) Time Alt. Az. Time Alt. Az. Time Alt. Az.
26 Oct 2.2 05:48:20 34° ENE 05:48:20 34° ENE 05:51:03 10° ESE visible
27 Oct 2.8 05:38:08 27° ESE 05:38:08 27° ESE 05:40:06 10° ESE visible
27 Oct 2.6 07:14:09 10° WSW 07:17:08 19° SSW 07:20:08 10° SSE visible
28 Oct 3.4 05:27:54 18° ESE 05:27:54 18° ESE 05:29:03 10° ESE visible
28 Oct 2.9 07:03:50 10° WSW 07:06:06 14° SSW 07:08:23 10° S visible
29 Oct 3.9 05:17:36 12° SE 05:17:36 12° SE 05:17:54 10° SE visible
29 Oct 3.2 06:54:14 10° SW 06:55:05 11° SSW 06:55:57 10° SSW visible
